QPF
0.00 0.00 0.00 0.00 0.00 0.00 0.00 0.00 0.00 0.00 0.00 0.00 0.00 0.00 0.00 0.00 0.00 0.00 0.00 0.00 0.00 0.00 0.00 0.00 0.00 0.00 0.00 0.00 0.00 0.00 0.00 0.00 0.00 0.00 0.00 0.00 0.00 0.00 0.00 0.01 0.00 0.00 0.00 0.00 0.00
0.00 0.00 0.00 0.00 0.00 0.00 0.00 0.00 0.00 0.00 0.00 0.00 0.00 0.00 0.00 0.00 0.00 0.00 0.00 0.00 0.00 0.00 0.00 0.00 0.00 0.00 0.00 0.00 0.00 0.00 0.00 0.00 0.00 0.00 0.00 0.00 0.00 0.00 0.00 0.00 0.00 0.00 0.00 0.00 0.00
0.00 0.00 0.00 0.00 0.00 0.00 0.00 0.00 0.00 0.00 0.00 0.00 0.00 0.00 0.00 0.00 0.00 0.00 0.00 0.00 0.00 0.01 0.00 0.00 0.00 0.00 0.00 0.00 0.00 0.00 0.00 0.00 0.00 0.00 0.00 0.00 0.00 0.00 0.00 0.00 0.00 0.00 0.00 0.00 0.00
0.00 0.00 0.00 0.00 0.00 0.00 0.00 0.00 0.00 0.00 0.00 0.00 0.00 0.00 0.00 0.00 0.00 0.00 0.00 0.00 0.00 0.01 0.01 0.00 0.01 0.02 0.01 0.00 0.00 0.00 0.00 0.00 0.00 0.00 0.00 0.00 0.00 0.00 0.00 0.00 0.00 0.00 0.00 0.00 0.00
0.00 0.00 0.00 0.00 0.00 0.00 0.00 0.00 0.00 0.00 0.00 0.00 0.00 0.00 0.00 0.00 0.00 0.00 0.00 0.00 0.00 0.00 0.01 0.01 0.01 0.02 0.02 0.00 0.00 0.00 0.00 0.00 0.00 0.00 0.00 0.00 0.00 0.00 0.00 0.00 0.00 0.00 0.00 0.00 0.00
0.00 0.00 0.00 0.00 0.00 0.00 0.00 0.00 0.00 0.00 0.00 0.00 0.00 0.00 0.00 0.00 0.00 0.00 0.00 0.00 0.00 0.00 0.00 0.01 0.03 0.03 0.03 0.01 0.00 0.00 0.00 0.00 0.00 0.00 0.00 0.00 0.00 0.00 0.00 0.00 0.00 0.00 0.00 0.00 0.00
0.00 0.00 0.00 0.00 0.00 0.00 0.00 0.00 0.00 0.00 0.00 0.00 0.00 0.00 0.00 0.00 0.00 0.00 0.00 0.00 0.00 0.00 0.00 0.00 0.01 0.02 0.04 0.04 0.01 0.01 0.00 0.00 0.00 0.00 0.00 0.00 0.00 0.00 0.00 0.00 0.00 0.00 0.00 0.00 0.00
0.00 0.00 0.00 0.00 0.00 0.00 0.00 0.00 0.00 0.00 0.00 0.00 0.00 0.00 0.00 0.00 0.00 0.00 0.00 0.00 0.00 0.00 0.01 0.00 0.01 0.02 0.02 0.04 0.03 0.03 0.02 0.00 0.00 0.00 0.00 0.00 0.00 0.00 0.00 0.00 0.00 0.00 0.00 0.00 0.00
0.00 0.00 0.00 0.00 0.00 0.00 0.00 0.00 0.00 0.00 0.00 0.00 0.00 0.00 0.00 0.00 0.00 0.00 0.00 0.00 0.00 0.00 0.00 0.00 0.01 0.04 0.04 0.03 0.02 0.03 0.01 0.00 0.00 0.00 0.00 0.00 0.00 0.00 0.00 0.00 0.00 0.00 0.00 0.00 0.00
0.00 0.00 0.00 0.00 0.00 0.00 0.00 0.00 0.00 0.00 0.00 0.00 0.00 0.00 0.00 0.00 0.00 0.00 0.00 0.00 0.00 0.00 0.00 0.00 0.02 0.03 0.04 0.02 0.01 0.01 0.01 0.01 0.00 0.00 0.00 0.00 0.00 0.00 0.01 0.01 0.00 0.00 0.00 0.00 0.00
0.00 0.00 0.00 0.00 0.00 0.00 0.00 0.00 0.00 0.00 0.00 0.00 0.00 0.00 0.00 0.00 0.00 0.00 0.00 0.00 0.00 0.00 0.00 0.00 0.02 0.02 0.01 0.02 0.01 0.00 0.00 0.00 0.00 0.00 0.00 0.00 0.00 0.00 0.02 0.06 0.04 0.01 0.00 0.00 0.00
0.00 0.00 0.00 0.00 0.00 0.00 0.00 0.00 0.00 0.00 0.00 0.00 0.00 0.00 0.00 0.00 0.00 0.00 0.00 0.00 0.00 0.00 0.00 0.00 0.00 0.01 0.01 0.00 0.01 0.01 0.00 0.00 0.00 0.00 0.00 0.00 0.00 0.00 0.00 0.01 0.02 0.00 0.00 0.00 0.00
0.00 0.00 0.00 0.00 0.00 0.00 0.00 0.00 0.00 0.00 0.00 0.00 0.00 0.00 0.00 0.00 0.00 0.00 0.00 0.00 0.00 0.00 0.00 0.00 0.00 0.00 0.01 0.00 0.01 0.00 0.00 0.00 0.00 0.00 0.00 0.00 0.00 0.00 0.00 0.00 0.03 0.06 0.08 0.02 0.00
0.00 0.00 0.00 0.00 0.00 0.00 0.00 0.00 0.00 0.00 0.00 0.00 0.00 0.00 0.00 0.00 0.00 0.00 0.00 0.00 0.00 0.00 0.00 0.00 0.00 0.00 0.01 0.01 0.00 0.00 0.00 0.00 0.00 0.00 0.00 0.00 0.00 0.00 0.00 0.00 0.00 0.01 0.02 0.02 0.00
0.00 0.00 0.00 0.00 0.00 0.00 0.00 0.00 0.00 0.00 0.00 0.00 0.00 0.00 0.00 0.00 0.00 0.00 0.01 0.01 0.00 0.00 0.01 0.00 0.01 0.01 0.01 0.01 0.00 0.00 0.00 0.00 0.00 0.00 0.00 0.01 0.01 0.00 0.00 0.00 0.00 0.00 0.00 0.02 0.03
0.00 0.00 0.00 0.00 0.00 0.00 0.00 0.00 0.00 0.00 0.00 0.00 0.00 0.00 0.00 0.00 0.00 0.00 0.00 0.00 0.00 0.00 0.00 0.00 0.01 0.03 0.02 0.02 0.00 0.00 0.00 0.00 0.00 0.00 0.00 0.00 0.00 0.00 0.00 0.00 0.00 0.00 0.00 0.01 0.03
0.00 0.00 0.00 0.00 0.00 0.00 0.00 0.00 0.00 0.00 0.00 0.00 0.00 0.00 0.00 0.00 0.00 0.00 0.00 0.00 0.00 0.00 0.00 0.00 0.01 0.03 0.02 0.02 0.01 0.00 0.00 0.01 0.00 0.00 0.00 0.00 0.00 0.00 0.00 0.00 0.00 0.00 0.00 0.00 0.02
0.00 0.00 0.00 0.00 0.00 0.00 0.00 0.00 0.00 0.00 0.00 0.00 0.00 0.00 0.00 0.00 0.00 0.00 0.00 0.00 0.00 0.00 0.00 0.00 0.01 0.03 0.03 0.00 0.00 0.00 0.00 0.00 0.00 0.00 0.00 0.00 0.00 0.00 0.00 0.00 0.00 0.00 0.00 0.00 0.01
0.00 0.00 0.00 0.00 0.00 0.00 0.00 0.00 0.00 0.00 0.00 0.00 0.00 0.00 0.00 0.00 0.00 0.00 0.00 0.00 0.00 0.01 0.01 0.00 0.00 0.01 0.02 0.03 0.00 0.00 0.00 0.00 0.00 0.00 0.00 0.00 0.00 0.00 0.00 0.00 0.00 0.00 0.00 0.00 0.00
0.00 0.00 0.00 0.00 0.00 0.00 0.00 0.00 0.00 0.00 0.00 0.00 0.00 0.00 0.00 0.00 0.00 0.00 0.00 0.00 0.01 0.02 0.01 0.01 0.01 0.00 0.01 0.02 0.01 0.00 0.00 0.00 0.00 0.00 0.00 0.00 0.00 0.00 0.00 0.00 0.00 0.00 0.00 0.00 0.00
0.00 0.00 0.00 0.00 0.00 0.00 0.00 0.00 0.00 0.00 0.00 0.00 0.00 0.00 0.00 0.00 0.00 0.00 0.00 0.00 0.00 0.01 0.00 0.01 0.01 0.00 0.01 0.00 0.00 0.00 0.00 0.00 0.00 0.00 0.00 0.00 0.00 0.00 0.00 0.00 0.00 0.00 0.00 0.00 0.00
0.00 0.00 0.00 0.00 0.00 0.00 0.00 0.00 0.00 0.00 0.00 0.00 0.01 0.00 0.00 0.00 0.00 0.00 0.00 0.00 0.00 0.01 0.00 0.00 0.01 0.00 0.00 0.00 0.00 0.00 0.00 0.00 0.00 0.00 0.00 0.00 0.00 0.00 0.00 0.00 0.00 0.00 0.00 0.00 0.00
0.00 0.00 0.00 0.00 0.00 0.00 0.00 0.00 0.00 0.00 0.00 0.00 0.00 0.00 0.00 0.00 0.00 0.00 0.00 0.00 0.00 0.00 0.01 0.00 0.00 0.00 0.00 0.00 0.00 0.00 0.00 0.00 0.00 0.00 0.00 0.00 0.00 0.00 0.00 0.00 0.00 0.00 0.00 0.00 0.00
0.00 0.00 0.00 0.00 0.00 0.00 0.00 0.00 0.00 0.00 0.00 0.00 0.00 0.00 0.00 0.00 0.00 0.00 0.00 0.00 0.00 0.00 0.01 0.01 0.00 0.00 0.00 0.00 0.00 0.00 0.00 0.00 0.00 0.00 0.00 0.00 0.00 0.00 0.00 0.00 0.00 0.00 0.00 0.00 0.00
0.00 0.00 0.00 0.00 0.00 0.00 0.00 0.00 0.00 0.00 0.00 0.00 0.00 0.00 0.00 0.00 0.00 0.00 0.00 0.00 0.00 0.00 0.00 0.00 0.00 0.00 0.00 0.00 0.00 0.00 0.00 0.00 0.00 0.00 0.00 0.00 0.00 0.00 0.00 0.00 0.00 0.00 0.00 0.00 0.00
0.00 0.00 0.00 0.00 0.00 0.00 0.00 0.00 0.00 0.00 0.00 0.00 0.00 0.00 0.00 0.00 0.00 0.00 0.00 0.00 0.00 0.00 0.00 0.00 0.00 0.00 0.00 0.00 0.00 0.00 0.00 0.00 0.00 0.00 0.00 0.00 0.00 0.00 0.00 0.00 0.00 0.00 0.00 0.00 0.00
0.00 0.00 0.00 0.00 0.00 0.00 0.00 0.00 0.00 0.00 0.00 0.00 0.00 0.00 0.00 0.00 0.00 0.00 0.00 0.00 0.00 0.00 0.00 0.00 0.00 0.00 0.00 0.00 0.00 0.00 0.00 0.00 0.00 0.00 0.00 0.00 0.00 0.00 0.00 0.00 0.00 0.00 0.00 0.00 0.00
MSLP
1023.22 1023.18 1023.07 1023.00 1022.90 1022.65 1022.46 1022.36 1022.22 1022.04 1021.79 1021.53 1021.12 1020.77 1020.51 1019.99 1019.54 1019.10 1018.37 1017.51 1017.28 1016.97 1016.98 1016.80 1016.12 1016.02 1015.72 1015.69 1015.20 1015.66 1016.25 1016.25 1015.41 1014.54 1013.39 1012.89 1013.03 1013.23 1013.32 1014.04 1014.67 1014.86 1015.20 1015.53 1016.24
1023.16 1023.27 1023.26 1023.05 1023.05 1022.78 1022.61 1022.38 1022.18 1021.99 1021.80 1021.63 1021.33 1020.93 1020.40 1019.78 1019.68 1018.97 1018.12 1017.64 1017.17 1017.27 1017.39 1017.17 1016.88 1016.57 1016.21 1015.80 1015.37 1015.47 1015.90 1015.63 1014.77 1014.28 1013.47 1012.80 1012.72 1012.95 1013.53 1014.12 1014.72 1014.96 1015.27 1015.62 1016.60
1023.22 1023.15 1023.19 1023.19 1023.13 1022.96 1022.74 1022.53 1022.34 1022.11 1021.83 1021.57 1021.31 1021.00 1020.55 1020.12 1020.03 1018.96 1018.03 1017.66 1017.30 1017.27 1017.42 1017.59 1017.47 1017.12 1016.55 1015.89 1015.51 1015.13 1014.98 1014.75 1014.07 1013.74 1013.57 1013.35 1012.87 1012.77 1013.20 1013.99 1013.33 1013.95 1015.08 1016.03 1016.48
1023.17 1023.17 1023.12 1023.02 1023.05 1022.99 1022.86 1022.65 1022.41 1022.18 1021.96 1021.66 1021.32 1021.00 1020.50 1020.45 1020.27 1018.67 1018.19 1017.97 1017.70 1017.44 1017.52 1017.61 1017.61 1017.16 1016.52 1015.86 1015.18 1014.96 1014.24 1014.08 1013.68 1013.36 1013.49 1013.45 1012.84 1012.71 1012.67 1012.24 1012.11 1013.02 1014.12 1015.48 1016.09
1023.11 1023.12 1023.11 1023.05 1022.92 1022.87 1022.81 1022.69 1022.44 1022.15 1021.88 1021.72 1021.50 1021.18 1020.95 1020.98 1020.06 1018.72 1018.55 1018.26 1017.96 1018.07 1018.10 1018.04 1017.79 1017.44 1016.51 1015.65 1015.17 1014.60 1014.00 1013.69 1013.43 1013.21 1013.13 1013.12 1013.18 1012.64 1012.39 1012.03 1012.18 1013.09 1014.35 1015.17 1015.66
1023.07 1023.01 1022.93 1022.92 1022.87 1022.69 1022.59 1022.45 1022.29 1022.16 1021.90 1021.61 1021.28 1021.24 1021.62 1021.17 1019.43 1019.07 1018.85 1018.55 1018.51 1018.36 1018.38 1018.32 1017.87 1017.56 1016.49 1015.63 1015.16 1014.13 1013.69 1013.40 1013.10 1012.88 1012.78 1013.10 1012.83 1012.95 1012.43 1012.60 1012.88 1013.25 1014.11 1014.96 1015.46
1022.97 1022.90 1022.83 1022.73 1022.77 1022.62 1022.43 1022.26 1022.11 1021.95 1021.77 1021.63 1021.47 1021.44 1021.69 1020.68 1019.26 1019.05 1018.82 1018.66 1018.39 1018.53 1018.50 1018.39 1018.16 1018.14 1016.89 1015.73 1014.83 1014.37 1014.09 1013.55 1012.28 1012.52 1012.81 1012.91 1012.78 1012.89 1012.66 1012.81 1013.14 1013.37 1013.90 1014.60 1015.36
1022.98 1022.88 1022.80 1022.68 1022.60 1022.56 1022.39 1022.17 1021.92 1021.74 1021.55 1021.39 1021.28 1021.64 1021.22 1019.61 1019.22 1019.14 1018.79 1018.57 1018.17 1018.23 1018.37 1018.08 1018.11 1017.92 1016.98 1015.93 1015.05 1014.38 1014.29 1013.03 1011.15 1012.29 1012.24 1013.37 1012.69 1012.41 1012.96 1012.96 1013.06 1013.63 1014.00 1014.28 1014.78
1022.88 1022.95 1022.91 1022.77 1022.66 1022.37 1022.16 1021.85 1021.59 1021.35 1021.18 1021.16 1021.65 1021.75 1020.92 1019.40 1019.26 1018.84 1018.73 1018.66 1018.43 1018.13 1018.01 1017.87 1017.90 1017.59 1016.85 1016.44 1015.90 1014.15 1012.81 1012.43 1012.12 1011.85 1012.31 1012.76 1012.44 1012.03 1012.66 1013.01 1012.96 1013.21 1013.64 1014.11 1014.80
1022.72 1022.87 1022.84 1022.81 1022.83 1022.56 1022.01 1021.49 1021.38 1021.20 1021.38 1021.42 1021.68 1022.23 1020.81 1020.07 1019.41 1018.89 1018.45 1018.36 1018.33 1018.15 1018.02 1017.83 1017.72 1017.32 1016.71 1016.72 1013.97 1014.63 1014.06 1013.04 1012.04 1011.70 1012.05 1012.19 1012.11 1011.91 1012.18 1012.61 1012.51 1012.66 1013.24 1013.71 1014.22
1022.59 1022.60 1022.84 1022.95 1022.92 1022.61 1022.42 1021.79 1022.33 1022.22 1022.21 1022.34 1022.23 1022.05 1021.10 1019.99 1019.51 1018.66 1018.33 1018.30 1018.37 1018.62 1018.67 1018.09 1017.91 1017.04 1016.80 1016.25 1015.91 1015.30 1014.93 1014.49 1013.71 1013.35 1012.43 1011.26 1011.81 1011.88 1011.62 1012.14 1012.19 1012.56 1013.09 1013.35 1013.86
1022.49 1022.56 1022.81 1022.97 1023.01 1022.75 1022.99 1023.52 1023.91 1024.12 1023.45 1022.25 1022.04 1021.87 1020.98 1020.50 1019.84 1018.86 1018.44 1018.75 1018.71 1018.95 1018.91 1018.84 1017.79 1017.59 1017.60 1017.07 1016.23 1015.57 1014.89 1014.90 1014.36 1013.82 1013.30 1011.57 1011.11 1011.66 1011.77 1011.22 1011.37 1011.74 1012.53 1013.08 1013.89
1022.53 1022.62 1022.83 1023.15 1023.14 1023.32 1023.72 1024.20 1023.99 1023.81 1024.16 1022.69 1021.78 1021.37 1020.75 1020.56 1019.98 1018.93 1018.64 1018.70 1019.07 1019.25 1019.21 1018.90 1017.59 1017.21 1017.54 1017.24 1016.54 1015.39 1015.60 1014.74 1014.71 1014.33 1013.79 1013.61 1010.77 1010.94 1010.48 1010.73 1011.29 1011.50 1011.91 1012.73 1013.29
1022.66 1022.95 1023.13 1023.30 1023.78 1023.92 1024.09 1024.09 1024.00 1024.01 1024.75 1023.27 1021.91 1021.03 1020.61 1020.34 1019.92 1018.83 1018.50 1018.95 1019.26 1019.33 1018.93 1018.17 1016.57 1016.78 1016.73 1016.85 1016.54 1015.00 1014.56 1014.78 1014.64 1014.75 1013.75 1012.83 1010.53 1009.38 1010.14 1010.91 1010.87 1011.09 1011.89 1012.66 1013.71
1022.77 1023.06 1023.31 1023.59 1024.13 1024.27 1024.39 1023.95 1024.10 1024.53 1025.22 1023.92 1022.39 1021.13 1021.15 1021.23 1020.41 1018.97 1018.56 1018.95 1019.03 1019.09 1019.49 1017.80 1016.53 1016.18 1015.81 1015.87 1015.89 1015.20 1015.00 1014.84 1014.40 1014.38 1013.69 1012.00 1012.00 1008.76 1008.97 1010.06 1010.51 1011.10 1011.30 1012.69 1013.63
1022.82 1023.32 1023.52 1024.10 1024.38 1024.52 1024.21 1024.10 1024.67 1025.93 1026.48 1024.80 1023.73 1022.92 1022.50 1021.69 1020.92 1019.77 1019.14 1018.80 1019.03 1018.99 1018.28 1017.25 1016.61 1016.00 1015.47 1015.38 1014.87 1014.74 1014.82 1014.54 1014.11 1013.40 1012.04 1010.02 1011.48 1008.26 1007.48 1007.61 1009.80 1010.83 1011.27 1012.67 1013.67
1022.98 1023.36 1023.88 1024.42 1024.81 1024.51 1024.34 1025.09 1026.89 1027.55 1027.68 1026.80 1025.78 1024.81 1024.38 1023.10 1021.96 1021.00 1020.23 1019.79 1019.84 1019.50 1018.08 1016.66 1015.40 1014.89 1015.66 1015.84 1014.40 1014.38 1014.32 1013.65 1013.36 1011.65 1009.93 1008.51 1009.53 1007.77 1007.09 1007.37 1008.02 1010.18 1011.28 1013.16 1014.29
1023.19 1023.52 1024.57 1024.86 1024.74 1024.58 1025.10 1026.43 1028.50 1029.30 1028.72 1027.75 1026.84 1025.88 1025.31 1024.31 1023.12 1022.32 1021.47 1020.85 1019.92 1019.68 1018.76 1017.32 1015.60 1014.34 1014.79 1015.19 1013.97 1013.92 1013.21 1012.33 1012.51 1012.34 1011.76 1009.66 1008.15 1008.16 1008.52 1008.07 1008.35 1009.52 1011.24 1013.45 1014.86
1023.22 1024.36 1024.93 1025.01 1024.64 1024.88 1026.04 1028.43 1028.81 1029.29 1028.62 1028.10 1027.18 1026.98 1026.45 1025.55 1024.80 1023.78 1022.55 1021.72 1020.64 1019.96 1019.24 1017.83 1015.90 1014.52 1014.27 1014.34 1013.63 1013.55 1013.11 1012.65 1012.52 1012.55 1011.82 1008.88 1009.14 1009.11 1009.23 1008.78 1009.15 1010.98 1012.33 1014.06 1015.51
1023.76 1024.90 1025.40 1025.16 1024.88 1025.45 1027.24 1028.76 1028.99 1028.26 1027.81 1027.74 1027.93 1027.84 1027.68 1026.73 1025.91 1024.70 1023.45 1021.88 1020.88 1020.09 1019.31 1018.02 1016.49 1014.43 1013.86 1013.82 1013.43 1012.95 1012.84 1012.88 1012.43 1012.32 1011.55 1010.67 1009.98 1010.30 1010.06 1010.27 1010.89 1012.21 1013.27 1014.60 1016.01
1024.13 1025.38 1025.38 1025.18 1025.18 1026.53 1028.78 1029.24 1028.50 1027.67 1027.34 1027.43 1027.57 1027.62 1027.70 1027.30 1026.60 1025.61 1024.09 1022.18 1020.99 1019.99 1019.57 1018.40 1017.60 1015.67 1014.72 1014.22 1013.75 1013.25 1012.76 1012.27 1012.29 1012.71 1012.89 1011.46 1010.57 1010.98 1010.93 1011.35 1012.00 1012.93 1014.21 1015.30 1016.61
1024.71 1025.90 1025.61 1025.20 1026.94 1028.37 1029.36 1028.62 1027.91 1027.36 1026.90 1026.81 1026.93 1027.14 1027.21 1027.00 1026.70 1025.75 1024.17 1022.73 1021.38 1020.87 1019.57 1019.07 1017.93 1016.47 1015.09 1014.42 1014.21 1013.42 1013.02 1012.10 1012.06 1012.56 1012.37 1012.24 1011.85 1011.72 1011.76 1011.91 1012.79 1013.94 1015.09 1016.11 1016.92
1025.33 1026.34 1026.03 1025.83 1027.84 1029.68 1029.20 1028.47 1027.64 1027.03 1026.46 1026.43 1026.40 1026.49 1026.58 1026.74 1026.43 1025.31 1023.88 1022.14 1021.63 1021.12 1020.04 1019.25 1018.05 1017.09 1015.27 1014.68 1014.13 1013.30 1013.16 1012.51 1012.11 1011.94 1012.45 1012.66 1012.85 1012.59 1012.30 1012.75 1013.56 1014.30 1015.49 1016.35 1017.26
1025.62 1026.88 1027.35 1027.46 1028.32 1028.83 1029.02 1028.44 1027.51 1026.57 1026.35 1026.25 1026.23 1026.46 1026.56 1026.17 1025.98 1025.10 1024.06 1022.57 1021.70 1021.10 1020.35 1019.49 1017.83 1017.61 1016.46 1015.47 1014.79 1014.14 1013.55 1013.43 1013.13 1013.04 1012.91 1012.87 1012.79 1012.89 1013.03 1013.51 1014.27 1015.06 1015.97 1016.62 1017.46
1025.79 1027.19 1027.69 1028.47 1028.70 1028.47 1028.30 1028.15 1027.62 1026.85 1026.36 1026.23 1026.37 1026.53 1026.45 1026.14 1025.85 1025.25 1024.47 1023.45 1021.92 1021.28 1020.48 1019.66 1018.30 1017.60 1016.62 1015.87 1015.03 1014.21 1013.91 1013.79 1013.41 1013.08 1012.76 1012.60 1012.56 1012.76 1012.99 1013.96 1014.85 1015.76 1016.24 1016.85 1017.66
1025.41 1026.78 1027.88 1028.48 1028.17 1028.31 1028.12 1027.92 1027.52 1027.11 1026.75 1026.47 1026.64 1026.20 1026.26 1026.14 1025.77 1025.38 1025.14 1024.53 1023.30 1022.07 1021.40 1020.29 1019.05 1018.40 1017.30 1016.53 1015.95 1014.99 1014.20 1013.66 1013.29 1012.76 1012.22 1012.30 1012.97 1013.34 1013.87 1014.13 1014.97 1015.76 1016.55 1017.41 1018.18
1024.99 1025.65 1026.09 1028.17 1028.29 1028.19 1027.64 1027.34 1027.07 1026.85 1026.45 1026.34 1026.45 1026.48 1026.16 1025.72 1025.53 1025.22 1025.11 1024.87 1024.26 1023.70 1022.49 1021.33 1020.27 1019.22 1018.07 1016.85 1015.99 1015.39 1014.43 1013.99 1013.37 1013.00 1012.87 1012.92 1013.06 1013.30 1013.94 1014.56 1014.99 1015.56 1016.18 1016.83 1017.55
Thickness
5590 5590 5590 5589 5589 5590 5591 5591 5592 5593 5595 5597 5600 5604 5605 5610 5614 5618 5621 5629 5632 5635 5637 5640 5646 5648 5652 5651 5659 5655 5633 5632 5654 5662 5682 5693 5694 5700 5707 5699 5699 5703 5705 5706 5701
5588 5585 5584 5585 5583 5585 5586 5586 5587 5589 5590 5592 5594 5597 5601 5607 5608 5610 5620 5622 5626 5625 5626 5628 5630 5634 5636 5643 5648 5643 5626 5638 5659 5666 5675 5687 5692 5692 5695 5694 5694 5698 5701 5700 5694
5583 5582 5580 5579 5578 5578 5580 5581 5581 5582 5584 5586 5589 5591 5594 5598 5598 5605 5613 5616 5619 5621 5622 5618 5621 5623 5625 5635 5637 5640 5634 5650 5659 5666 5670 5673 5683 5691 5688 5683 5706 5701 5693 5690 5691
5578 5577 5577 5576 5574 5574 5574 5575 5575 5576 5577 5579 5581 5583 5587 5589 5593 5602 5605 5607 5609 5612 5612 5611 5611 5615 5620 5623 5637 5630 5644 5653 5660 5664 5662 5664 5679 5681 5690 5706 5714 5708 5701 5692 5690
5573 5572 5571 5570 5569 5569 5569 5569 5570 5571 5572 5571 5572 5574 5577 5571 5578 5593 5594 5595 5598 5598 5598 5598 5600 5603 5610 5619 5626 5624 5639 5648 5654 5655 5657 5661 5662 5677 5683 5700 5705 5700 5695 5690 5690
5568 5567 5566 5564 5564 5563 5563 5564 5565 5565 5566 5567 5568 5566 5562 5556 5579 5581 5584 5585 5584 5585 5584 5585 5590 5593 5601 5609 5612 5624 5632 5640 5648 5651 5655 5649 5658 5665 5680 5684 5689 5693 5690 5687 5687
5562 5562 5561 5561 5559 5558 5557 5558 5558 5558 5558 5557 5557 5557 5551 5554 5569 5572 5573 5574 5576 5574 5572 5573 5575 5574 5587 5598 5608 5612 5612 5622 5643 5646 5642 5644 5644 5648 5670 5675 5678 5684 5685 5684 5681
5557 5556 5555 5555 5554 5552 5551 5551 5551 5551 5551 5550 5549 5545 5539 5557 5557 5556 5558 5560 5563 5563 5561 5561 5561 5564 5572 5585 5592 5596 5596 5604 5646 5635 5640 5629 5626 5654 5657 5664 5670 5673 5675 5680 5680
5552 5550 5549 5548 5547 5548 5547 5546 5546 5546 5544 5542 5537 5533 5530 5547 5545 5545 5545 5545 5545 5547 5549 5548 5548 5552 5559 5561 5564 5588 5595 5602 5613 5630 5629 5624 5621 5651 5651 5653 5660 5667 5670 5673 5672
5549 5545 5543 5541 5539 5538 5540 5541 5539 5538 5534 5530 5526 5519 5526 5528 5529 5530 5534 5533 5531 5530 5531 5534 5532 5537 5544 5540 5568 5565 5565 5593 5602 5626 5621 5619 5619 5643 5644 5648 5657 5663 5665 5668 5670
5545 5542 5537 5533 5529 5529 5529 5531 5520 5517 5515 5512 5510 5507 5510 5517 5515 5520 5520 5517 5515 5511 5499 5507 5508 5524 5526 5534 5542 5551 5548 5555 5575 5590 5606 5618 5619 5632 5641 5642 5647 5652 5654 5661 5664
5538 5535 5530 5524 5520 5519 5516 5506 5501 5496 5496 5501 5497 5493 5498 5498 5495 5500 5503 5496 5492 5481 5483 5477 5483 5498 5495 5502 5517 5528 5542 5547 5566 5578 5586 5610 5615 5618 5627 5638 5647 5652 5652 5655 5655
5532 5528 5521 5514 5511 5508 5500 5492 5489 5487 5478 5484 5489 5486 5485 5483 5479 5479 5483 5475 5465 5453 5452 5448 5472 5472 5472 5474 5495 5522 5524 5547 5552 5563 5569 5565 5600 5610 5624 5631 5635 5643 5649 5650 5654
5525 5518 5512 5506 5498 5494 5488 5483 5478 5475 5431 5468 5476 5478 5473 5467 5462 5468 5465 5456 5448 5441 5438 5443 5468 5459 5465 5470 5484 5513 5522 5535 5541 5546 5561 5565 5584 5609 5614 5612 5624 5634 5639 5642 5639
5517 5511 5505 5494 5488 5483 5479 5476 5468 5458 5405 5460 5459 5463 5453 5449 5447 5450 5448 5437 5435 5430 5426 5444 5461 5464 5468 5478 5480 5495 5518 5526 5531 5529 5536 5561 5556 5600 5617 5604 5616 5623 5639 5639 5635
5512 5502 5496 5485 5480 5474 5472 5467 5455 5416 5392 5423 5435 5430 5429 5429 5431 5433 5434 5435 5431 5430 5437 5442 5456 5465 5474 5482 5491 5503 5501 5513 5524 5528 5542 5575 5557 5587 5607 5625 5616 5621 5632 5628 5626
5505 5496 5488 5478 5472 5468 5465 5450 5411 5389 5407 5406 5408 5412 5404 5408 5412 5419 5419 5416 5415 5419 5440 5446 5466 5474 5464 5469 5491 5496 5507 5518 5531 5541 5564 5591 5572 5596 5618 5628 5635 5624 5622 5615 5612
5497 5491 5477 5471 5466 5461 5451 5423 5389 5335 5341 5397 5400 5401 5393 5399 5404 5400 5405 5406 5427 5429 5433 5430 5442 5479 5471 5468 5497 5494 5511 5530 5528 5542 5545 5564 5578 5592 5587 5607 5631 5624 5615 5601 5598
5491 5480 5470 5464 5460 5451 5430 5375 5389 5352 5395 5396 5395 5363 5369 5384 5390 5392 5400 5409 5424 5427 5431 5434 5446 5472 5475 5476 5492 5492 5511 5515 5526 5527 5533 5562 5563 5574 5577 5597 5607 5599 5596 5589 5586
5482 5468 5459 5456 5452 5439 5407 5409 5387 5404 5407 5401 5379 5352 5382 5376 5377 5389 5383 5407 5425 5418 5425 5440 5449 5472 5483 5483 5482 5500 5504 5518 5519 5534 5539 5557 5565 5569 5574 5577 5580 5582 5582 5576 5570
5473 5457 5454 5451 5444 5419 5385 5361 5381 5402 5406 5397 5375 5366 5360 5365 5359 5365 5372 5400 5418 5427 5427 5438 5443 5460 5473 5481 5490 5490 5508 5515 5528 5527 5528 5541 5557 5535 5552 5568 5568 5570 5566 5564 5562
5461 5437 5448 5445 5412 5378 5374 5382 5408 5403 5403 5399 5395 5388 5367 5365 5353 5369 5385 5398 5409 5415 5424 5425 5442 5452 5477 5477 5479 5487 5488 5521 5531 5525 5525 5529 5547 5530 5546 5561 5558 5553 5550 5549 5552
5445 5432 5441 5438 5390 5364 5368 5403 5406 5407 5407 5403 5399 5393 5387 5380 5379 5358 5386 5408 5407 5410 5419 5423 5444 5442 5465 5479 5482 5494 5498 5509 5525 5524 5524 5532 5541 5528 5539 5545 5546 5543 5539 5541 5541
5443 5424 5418 5415 5397 5390 5370 5379 5397 5409 5404 5404 5395 5386 5383 5384 5378 5371 5385 5401 5406 5411 5420 5427 5444 5449 5467 5475 5477 5484 5490 5498 5511 5515 5524 5525 5522 5523 5526 5531 5532 5532 5532 5535 5533
5435 5414 5409 5383 5404 5409 5404 5392 5393 5382 5402 5401 5388 5378 5382 5382 5366 5372 5377 5384 5401 5406 5414 5424 5442 5448 5457 5461 5473 5490 5490 5488 5506 5515 5525 5524 5528 5531 5531 5524 5523 5522 5524 5527 5527
5435 5421 5413 5404 5406 5403 5397 5396 5391 5378 5395 5393 5381 5388 5382 5383 5381 5382 5369 5372 5386 5396 5401 5416 5435 5435 5453 5452 5456 5482 5494 5496 5507 5513 5525 5529 5527 5515 5512 5517 5515 5517 5520 5519 5518
5435 5430 5422 5406 5403 5398 5389 5388 5395 5397 5398 5395 5389 5384 5382 5383 5377 5375 5372 5373 5377 5380 5392 5408 5422 5430 5442 5449 5459 5466 5486 5494 5502 5508 5521 5528 5531 5519 5523 5519 5515 5516 5520 5522 5522